GW2923 Weather Reports


time (UTC)temp
C
wind
direction
speed
KPH
gust
KPH
rain 1hr
cm
rain 24hr
cm
rain mn
cm
humidity
%
barometer
mb
20260506071031 5 282 19.3 30.6 0.00 0.00 0.00 58 1009.4
20260506070532 5 261 17.7 30.6 0.00 0.00 0.00 60 1009.5
20260506062029 5 257 17.7 29.0 0.00 0.00 0.00 61 1009.1
20260506061539 5 297 14.5 32.2 0.00 0.00 0.00 64 1009.0
20260506061029 4 249 17.7 32.2 0.00 0.00 0.00 63 1008.9
20260506060532 4 278 19.3 32.2 0.00 0.00 0.00 64 1008.9
20260506051029 3 259 16.1 25.7 0.00 0.00 0.00 71 1008.5
20260506050530 3 288 16.1 25.7 0.00 0.00 0.00 72 1008.6
20260506045030 3 258 11.3 22.5 0.00 0.00 0.00 75 1008.5
20260506044622 2 266 9.7 22.5 0.00 0.00 0.00 75 1008.5
20260506044035 2 245 14.5 25.7 0.00 0.00 0.00 75 1008.3
20260506043533 2 261 9.7 25.7 0.00 0.00 0.00 76 1008.3
20260506043043 2 261 16.1 25.7 0.00 0.00 0.00 77 1008.2
20260506042533 2 259 8.0 16.1 0.00 0.00 0.00 78 1008.2
20260506042032 1 238 6.4 14.5 0.00 0.00 0.00 78 1008.2
20260506041559 1 238 6.4 16.1 0.00 0.00 0.00 79 1008.2
20260506041034 1 214 8.0 16.1 0.00 0.00 0.00 78 1008.2
20260506040536 1 236 8.0 16.1 0.00 0.00 0.00 79 1008.1
20260506040050 1 216 8.0 16.1 0.00 0.00 0.00 80 1008.1
20260506035535 0 242 8.0 16.1 0.00 0.00 0.00 81 1008.0
20260506035033 0 251 6.4 14.5 0.00 0.00 0.00 81 1007.9
20260506034605 0 240 6.4 14.5 0.00 0.00 0.00 82 1007.9
20260506034033 0 251 8.0 14.5 0.00 0.00 0.00 82 1007.9
20260506033533 0 253 6.4 14.5 0.00 0.00 0.00 82 1007.8
20260506033049 0 224 6.4 14.5 0.00 0.00 0.00 82 1007.7
20260506032533 0 237 6.4 12.9 0.00 0.00 0.00 83 1007.8
20260506032033 0 249 6.4 14.5 0.00 0.00 0.00 83 1007.7
20260506031542 0 238 6.4 16.1 0.00 0.00 0.00 83 1007.6
20260506031033 0 260 6.4 16.1 0.00 0.00 0.00 83 1007.5
20260506030534 0 260 6.4 12.9 0.00 0.00 0.00 83 1007.5
20260506030048 0 240 4.8 12.9 0.00 0.00 0.00 83 1007.4
20260506025534 0 252 6.4 14.5 0.00 0.00 0.00 83 1007.4
20260506025033 0 249 6.4 14.5 0.00 0.00 0.00 84 1007.4
20260506024542 0 236 6.4 14.5 0.00 0.00 0.00 84 1007.3
20260506024034 0 244 6.4 14.5 0.00 0.00 0.00 84 1007.2
20260506023534 0 221 4.8 16.1 0.00 0.00 0.00 85 1007.3
20260506023104 -1 238 8.0 16.1 0.00 0.00 0.00 85 1007.2
20260506022533 -1 234 6.4 14.5 0.00 0.00 0.00 85 1007.2
20260506022033 -1 232 6.4 12.9 0.00 0.00 0.00 84 1007.2
20260506021546 -1 253 3.2 8.0 0.00 0.00 0.00 84 1007.2
20260506021034 -1 247 3.2 9.7 0.00 0.00 0.00 84 1007.1
20260506020535 -1 235 4.8 12.9 0.00 0.00 0.00 84 1007.1
20260506020046 -1 246 4.8 12.9 0.00 0.00 0.00 84 1007.0
20260506015535 -1 249 4.8 12.9 0.00 0.03 0.00 84 1007.0
20260506015036 -1 253 3.2 12.9 0.00 0.03 0.00 84 1007.0
20260506014540 -1 239 4.8 12.9 0.00 0.03 0.00 84 1007.0
20260506014036 0 245 3.2 11.3 0.00 0.03 0.00 84 1006.9
20260506013534 0 234 4.8 11.3 0.00 0.03 0.00 84 1006.8
20260506013041 0 211 4.8 11.3 0.00 0.03 0.00 83 1006.7
20260506012529 0 251 3.2 12.9 0.00 0.03 0.00 83 1006.7
20260506012030 0 249 4.8 12.9 0.00 0.03 0.00 83 1006.7
20260506011537 0 247 4.8 12.9 0.00 0.03 0.00 83 1006.7
20260506011029 0 230 6.4 11.3 0.00 0.03 0.00 83 1006.7
20260506010533 0 233 4.8 11.3 0.00 0.03 0.00 83 1006.6
20260506010051 0 225 4.8 11.3 0.00 0.03 0.00 83 1006.6
20260506005533 0 231 3.2 11.3 0.00 0.03 0.00 82 1006.5
20260506005029 0 228 4.8 11.3 0.00 0.03 0.00 83 1006.5
20260506004600 0 242 4.8 12.9 0.00 0.03 0.00 83 1006.4
20260506004030 0 250 4.8 12.9 0.00 0.03 0.00 83 1006.4
20260506003535 0 242 4.8 12.9 0.00 0.03 0.00 83 1006.4
20260506003051 0 259 4.8 12.9 0.00 0.03 0.00 83 1006.4
20260506002529 0 236 4.8 12.9 0.00 0.03 0.00 82 1006.2
20260506002030 0 240 6.4 12.9 0.00 0.03 0.00 82 1006.2
20260506001541 0 249 4.8 12.9 0.00 0.03 0.00 82 1006.2
20260506001030 0 243 6.4 11.3 0.00 0.03 0.00 83 1006.1
20260506000530 0 244 6.4 11.3 0.00 0.03 0.00 82 1006.1
20260506000040 0 252 4.8 12.9 0.00 0.03 0.00 82 1006.0
20260505235530 0 242 6.4 12.9 0.00 0.03 0.00 82 1006.0
20260505235033 0 243 4.8 11.3 0.00 0.03 0.00 82 1006.0
20260505234558 0 249 3.2 11.3 0.00 0.03 0.00 81 1005.9
20260505234032 0 243 3.2 8.0 0.00 0.03 0.00 81 1005.9
20260505233532 0 247 3.2 11.3 0.00 0.03 0.00 81 1005.8
20260505233041 0 232 4.8 12.9 0.00 0.03 0.00 81 1005.8
20260505232530 0 260 4.8 14.5 0.00 0.03 0.00 82 1005.8
20260505232032 0 244 6.4 14.5 0.00 0.03 0.00 82 1005.6
20260505231541 0 222 6.4 14.5 0.00 0.03 0.00 82 1005.7
20260505231030 0 243 6.4 14.5 0.00 0.03 0.00 82 1005.7
20260505230530 0 249 8.0 17.7 0.00 0.03 0.00 82 1005.7
20260505230043 0 224 6.4 17.7 0.00 0.03 0.00 82 1005.6
20260505225530 0 227 11.3 17.7 0.00 0.03 0.00 83 1005.6
20260505225036 1 227 6.4 14.5 0.00 0.03 0.00 82 1005.6
20260505224541 1 232 8.0 16.1 0.00 0.03 0.00 82 1005.6
20260505224033 1 221 8.0 16.1 0.00 0.03 0.00 82 1005.6
20260505223530 1 232 6.4 14.5 0.00 0.03 0.00 82 1005.6
20260505223044 1 229 4.8 14.5 0.00 0.03 0.00 82 1005.6
20260505222530 1 241 6.4 12.9 0.00 0.03 0.00 82 1005.6
20260505222032 1 237 8.0 12.9 0.00 0.03 0.00 81 1005.5
20260505221540 1 232 4.8 11.3 0.00 0.03 0.00 81 1005.5
20260505221029 1 229 6.4 11.3 0.00 0.03 0.00 81 1005.5
20260505220531 1 250 3.2 11.3 0.00 0.03 0.00 81 1005.5
20260505220055 1 254 4.8 12.9 0.00 0.03 0.00 81 1005.5
20260505215531 1 254 6.4 12.9 0.00 0.03 0.00 81 1005.6
20260505215031 1 255 4.8 12.9 0.00 0.03 0.00 81 1005.5
20260505214540 1 220 4.8 16.1 0.00 0.03 0.00 81 1005.5
20260505214030 1 233 8.0 16.1 0.00 0.03 0.00 81 1005.5
20260505213530 1 234 6.4 14.5 0.00 0.03 0.00 80 1005.5
20260505213046 1 253 9.7 20.9 0.00 0.03 0.00 80 1005.4
20260505212533 1 205 9.7 20.9 0.00 0.03 0.00 80 1005.4
20260505212031 1 228 8.0 16.1 0.00 0.03 0.00 80 1005.4
20260505211548 1 232 6.4 16.1 0.00 0.03 0.00 79 1005.3
20260505211033 1 228 8.0 14.5 0.00 0.03 0.00 79 1005.3
20260505210532 1 243 8.0 16.1 0.00 0.03 0.00 79 1005.4
20260505210041 1 220 8.0 16.1 0.00 0.03 0.00 79 1005.3
20260505205533 1 209 9.7 17.7 0.00 0.03 0.03 79 1005.3
20260505205034 1 253 6.4 17.7 0.00 0.03 0.03 78 1005.3
20260505204550 1 245 9.7 17.7 0.00 0.03 0.03 78 1005.2
20260505204030 1 207 6.4 19.3 0.00 0.03 0.03 78 1005.3
20260505203532 1 218 11.3 19.3 0.00 0.03 0.03 78 1005.3
20260505203039 1 226 9.7 16.1 0.00 0.03 0.03 77 1005.3
20260505202530 1 209 6.4 12.9 0.00 0.03 0.03 77 1005.2
20260505202032 1 232 8.0 12.9 0.00 0.03 0.03 77 1005.1
20260505201544 1 212 8.0 12.9 0.00 0.03 0.03 77 1005.1
20260505201033 1 229 8.0 12.9 0.00 0.03 0.03 77 1005.2
20260505200532 1 222 8.0 12.9 0.00 0.03 0.03 76 1005.1
20260505200041 1 228 6.4 11.3 0.00 0.03 0.03 76 1005.2
20260505195532 2 215 4.8 11.3 0.00 0.03 0.03 75 1005.1
20260505195032 2 248 4.8 11.3 0.00 0.03 0.03 75 1005.1
20260505194545 2 225 4.8 8.0 0.00 0.03 0.03 74 1005.1
20260505194031 2 220 4.8 11.3 0.00 0.03 0.03 73 1005.0
20260505193530 2 230 4.8 14.5 0.00 0.03 0.03 73 1005.1
20260505193045 2 214 8.0 14.5 0.00 0.03 0.03 73 1005.0
20260505192531 2 217 6.4 14.5 0.00 0.03 0.03 72 1005.0
20260505192033 2 214 8.0 14.5 0.00 0.03 0.03 72 1005.0
20260505191551 2 230 8.0 14.5 0.00 0.03 0.03 73 1005.0
20260505191032 2 226 8.0 14.5 0.00 0.03 0.03 72 1005.0
20260505190529 2 225 8.0 11.3 0.00 0.03 0.03 71 1005.0
20260505190042 2 218 8.0 11.3 0.00 0.03 0.03 70 1004.9
20260505185530 3 227 4.8 16.1 0.00 0.03 0.03 70 1004.9
20260505185032 3 229 6.4 16.1 0.00 0.03 0.03 70 1004.9
20260505184543 3 226 6.4 16.1 0.00 0.03 0.03 70 1004.8
20260505184029 3 259 4.8 12.9 0.00 0.03 0.03 69 1005.0
20260505183529 3 229 6.4 12.9 0.00 0.03 0.03 69 1004.9
20260505183041 3 209 6.4 12.9 0.00 0.03 0.03 67 1004.8
20260505182529 3 227 4.8 12.9 0.00 0.03 0.03 66 1004.7
20260505182029 3 251 8.0 11.3 0.00 0.03 0.03 64 1004.8
20260505181540 4 255 6.4 16.1 0.00 0.03 0.03 63 1004.8
20260505181030 4 238 8.0 24.1 0.00 0.03 0.03 62 1004.8
20260505180533 5 234 11.3 24.1 0.00 0.03 0.03 61 1004.8
20260505180048 5 231 8.0 20.9 0.00 0.03 0.03 60 1004.7
20260505175532 5 257 9.7 20.9 0.00 0.08 0.03 59 1004.7
20260505175035 5 229 9.7 19.3 0.00 0.08 0.03 58 1004.7
20260505174605 5 236 11.3 20.9 0.00 0.08 0.03 57 1004.6
20260505174033 5 264 11.3 20.9 0.00 0.08 0.03 56 1004.6
20260505173534 5 245 9.7 19.3 0.00 0.08 0.03 56 1004.6
20260505173044 5 268 9.7 25.7 0.00 0.08 0.03 55 1004.5
20260505172532 6 226 11.3 25.7 0.00 0.08 0.03 54 1004.6
20260505172029 6 252 12.9 24.1 0.00 0.08 0.03 53 1004.6
20260505171540 6 255 12.9 25.7 0.00 0.08 0.03 52 1004.6
20260505171031 6 257 12.9 27.4 0.00 0.08 0.03 51 1004.6
20260505170530 6 243 16.1 27.4 0.00 0.08 0.03 51 1004.6
20260505170050 6 264 14.5 24.1 0.00 0.08 0.03 51 1004.5
20260505165531 6 241 11.3 24.1 0.00 0.08 0.03 51 1004.5
20260505165033 6 255 9.7 24.1 0.00 0.08 0.03 51 1004.5
20260505164543 6 261 14.5 24.1 0.00 0.08 0.03 50 1004.4
20260505164030 6 250 14.5 25.7 0.00 0.08 0.03 50 1004.4
20260505163533 7 242 12.9 25.7 0.00 0.08 0.03 49 1004.3
20260505163044 7 263 11.3 27.4 0.00 0.08 0.03 50 1004.4
20260505162529 7 241 14.5 27.4 0.00 0.08 0.03 50 1004.3
20260505162030 7 261 14.5 27.4 0.00 0.08 0.03 48 1004.2
20260505161543 7 249 14.5 27.4 0.00 0.08 0.03 49 1004.2
20260505161032 7 273 11.3 25.7 0.00 0.08 0.03 48 1004.2
20260505160533 7 263 12.9 25.7 0.00 0.08 0.03 48 1004.2
20260505153053 7 274 19.3 27.4 0.00 0.08 0.03 44 1004.0
20260505152529 7 268 17.7 27.4 0.00 0.08 0.03 44 1003.9
20260505152030 8 291 14.5 32.2 0.00 0.08 0.03 44 1004.0
20260505151546 8 276 16.1 32.2 0.00 0.08 0.03 44 1003.9
20260505151029 8 280 17.7 32.2 0.00 0.08 0.03 44 1003.9
20260505150529 8 261 16.1 32.2 0.00 0.08 0.03 45 1003.8
20260505140530 8 292 19.3 37.0 0.00 0.08 0.03 42 1003.3
20260505125033 8 270 16.1 29.0 0.00 0.08 0.03 43 1002.9
20260505124550 8 274 14.5 38.6 0.00 0.08 0.03 43 1002.9
20260505124032 8 268 20.9 38.6 0.00 0.08 0.03 40 1002.9
20260505123532 8 269 19.3 38.6 0.00 0.08 0.03 42 1002.8
20260505123058 8 271 20.9 38.6 0.00 0.08 0.03 42 1002.7
20260505122533 8 274 17.7 37.0 0.00 0.08 0.03 44 1002.6
20260505122033 8 277 22.5 37.0 0.00 0.08 0.03 44 1002.6
20260505121546 8 276 20.9 32.2 0.00 0.08 0.03 44 1002.6
20260505121033 8 301 16.1 33.8 0.00 0.08 0.03 42 1002.4
20260505120534 7 273 17.7 33.8 0.00 0.08 0.03 45 1002.4
20260505120046 8 327 16.1 33.8 0.00 0.08 0.03 42 1002.4
20260505115534 8 281 20.9 33.8 0.00 0.08 0.03 43 1002.3
20260505115034 8 253 19.3 38.6 0.00 0.08 0.03 45 1002.3
20260505114553 8 263 22.5 38.6 0.00 0.08 0.03 43 1002.3
20260505114034 7 263 14.5 37.0 0.00 0.08 0.03 47 1002.1
20260505113536 8 281 14.5 37.0 0.00 0.08 0.03 44 1002.1
20260505113045 8 262 17.7 37.0 0.00 0.08 0.03 40 1002.3
20260505112535 7 275 20.9 32.2 0.00 0.08 0.03 49 1001.9
20260505112035 7 300 12.9 33.8 0.00 0.08 0.03 46 1001.9
20260505111558 8 295 14.5 33.8 0.00 0.08 0.03 49 1001.9
20260505111033 7 257 19.3 33.8 0.00 0.08 0.03 46 1001.8
20260505110533 8 336 16.1 33.8 0.00 0.08 0.03 47 1001.8
20260505102035 7 286 20.9 35.4 0.00 0.08 0.03 53 1001.3
20260505101545 7 271 12.9 33.8 0.00 0.08 0.03 54 1001.4
20260505101034 7 270 16.1 33.8 0.00 0.08 0.03 55 1001.3
20260505100530 6 253 11.3 33.8 0.00 0.08 0.03 57 1001.1
20260505100043 7 276 19.3 33.8 0.00 0.08 0.03 57 1001.2
20260505095535 7 266 14.5 29.0 0.00 0.08 0.03 59 1001.1
20260505095029 6 282 14.5 29.0 0.00 0.08 0.03 55 1001.1
20260505094545 7 276 17.7 33.8 0.00 0.08 0.03 57 1001.0
20260505094031 8 285 20.9 38.6 0.00 0.08 0.03 58 1000.9
20260505093529 7 253 22.5 38.6 0.00 0.08 0.03 58 1000.9
20260505093040 6 282 24.1 37.0 0.00 0.08 0.03 58 1000.9
20260505092530 7 282 16.1 30.6 0.00 0.08 0.03 57 1000.8
20260505092034 7 248 19.3 30.6 0.00 0.08 0.03 60 1000.8
20260505091542 6 284 20.9 30.6 0.00 0.08 0.03 62 1000.7
20260505091029 6 255 17.7 32.2 0.00 0.08 0.03 62 1000.8
20260505090530 6 278 20.9 40.2 0.00 0.08 0.03 60 1000.6
20260505090050 6 280 19.3 40.2 0.00 0.08 0.03 62 1000.6
20260505085530 6 260 19.3 40.2 0.00 0.08 0.03 60 1000.6
20260505085030 6 266 20.9 32.2 0.00 0.08 0.03 61 1000.6
20260505084538 5 272 20.9 32.2 0.00 0.08 0.03 62 1000.6
20260505084029 6 247 22.5 32.2 0.00 0.08 0.03 60 1000.5
20260505083529 5 306 19.3 30.6 0.00 0.08 0.03 66 1000.4
20260505083046 5 272 19.3 30.6 0.00 0.08 0.03 63 1000.4
20260505082533 6 266 16.1 35.4 0.00 0.08 0.03 62 1000.3
20260505082031 6 272 16.1 35.4 0.00 0.08 0.03 64 1000.2
20260505081548 6 258 17.7 32.2 0.00 0.08 0.03 62 1000.2
20260505081030 5 267 17.7 37.0 0.00 0.08 0.03 68 1000.1
20260505080529 5 269 22.5 38.6 0.00 0.08 0.03 62 1000.1
20260505080042 5 261 19.3 38.6 0.00 0.08 0.03 66 1000.0
20260505075529 5 274 22.5 38.6 0.00 0.08 0.03 64 999.9
20260505075032 5 266 19.3 38.6 0.00 0.08 0.03 65 999.9
20260505074543 5 273 22.5 38.6 0.00 0.08 0.03 63 999.8
20260505074030 5 324 22.5 35.4 0.00 0.08 0.03 65 999.8
20260505073530 5 268 19.3 37.0 0.00 0.08 0.03 67 999.9
20260505073040 5 268 22.5 37.0 0.00 0.08 0.03 68 999.8
20260505072532 5 290 22.5 37.0 0.00 0.08 0.03 66 999.7
20260505072032 5 259 22.5 33.8 0.00 0.08 0.03 70 999.7
20260505071544 5 277 16.1 29.0 0.00 0.08 0.03 73 999.6